Regional Weather Roundup
Issued by NWS

Home | Current Version | Previous Version | Graphics & Text | Print | Product List | Glossary On
Versions: 1 2 3 4 5 6 7 8 9 10 11 12 13 14 15 16 17 18 19 20 21 22 23 24 25 26 27 28 29 30 31 32 33 34 35 36 37 38 39 40 41 42 43 44 45 46 47 48 49 50
000
ASUS43 KMPX 252301
RWRMN
WEATHER ROUNDUP FOR MINNESOTA
NATIONAL WEATHER SERVICE TWIN CITIES/CHANHASSEN MN
600 PM CDT TUE JUL 25 2017


NOTE: "FAIR" INDICATES FEW OR NO CLOUDS BELOW 12,000 FEET WITH NO
SIGNIFICANT WEATHER AND/OR OBSTRUCTIONS TO VISIBILITY. N/A MEANS
CURRENT SKY AND/OR WEATHER CONDITIONS ARE NOT AVAILABLE.

MNZ060>063-068>070-260000-
   Twin Cities Metro

CITY           SKY/WX    TMP DP  RH WIND       PRES   REMARKS
TWIN CITIES    CLOUDY    84  70  62 VRB7      29.94S
ST PAUL        CLOUDY    80  72  76 SE7       29.93F
CRYSTAL        CLOUDY    81  68  64 SE6       29.92S
BLAINE         CLOUDY    81  72  74 SE9       29.94R
LAKEVILLE      SUNNY     81  72  74 S8G17     29.93F
EDEN PRAIRIE   CLOUDY    84  72  67 S7        29.92S THUNDER
SOUTH ST PAUL  PTSUNNY   82  70  68 S7        29.93F
LAKE ELMO      CLOUDY    79  70  73 SE6       29.96F
$$
MNZ001>005-007-008-013>017-022>024-027-028-260000-
   Northwest Minnesota

CITY           SKY/WX    TMP DP  RH WIND       PRES   REMARKS
BEMIDJI        CLOUDY    74  67  80 SW10      29.91R
HALLOCK        SUNNY     79  61  53 NW13G18   29.88R
ROSEAU         SUNNY     79  63  57 W12G20    29.86R
WARROAD        SUNNY     81  63  54 W14G28    29.84R
CROOKSTON      MOSUNNY   82  63  51 W13       29.89R
FOSSTON        MOSUNNY   79  68  69 SW13      29.91S
DETROIT LAKES  CLOUDY    75  68  78 NW7       29.93F
MOORHEAD       MOSUNNY   79  70  73 W6        29.91F
PARK RAPIDS    CLOUDY    77  69  76 W5        29.92R
MAHNOMEN       MOCLDY    75  69  82 SW9       29.91S
$$
MNZ006-009>011-018-025>026-260000-
   North Central Minnesota

CITY           SKY/WX    TMP DP  RH WIND       PRES   REMARKS
BAUDETTE       MOSUNNY   80  68  66 SW10      29.83F
FLAG ISLAND    SUNNY     79  52  38 W17G26    29.81R
INTL FALLS     CLOUDY    72  65  78 SW14G22   29.85F
WASKISH        CLOUDY    75  68  78 SW8       29.88S
BIG FORK       CLOUDY    72  66  83 SW9       29.90S
LONGVILLE      CLOUDY    73  66  78 SW5       29.91S
GRAND RAPIDS   CLOUDY    71  67  87 S7        29.92F
CRANE LAKE     CLOUDY    72  66  83 S5        29.89S
ORR            CLOUDY    72  63  73 S9        29.87S
COOK             N/A     72  66  83 S8        29.90F
WALKER         CLOUDY    73  67  82 W6        29.92R
$$
MNZ012-019>021-037-260000-
   Northeast Minnesota

CITY           SKY/WX    TMP DP  RH WIND       PRES   REMARKS
DULUTH         CLOUDY    69  65  86 SE6       29.94F
ELY            CLOUDY    72  63  73 S12G18    29.91F
HIBBING        CLOUDY    69  67  93 S6        29.91F
EVELETH        CLOUDY    73  65  76 S9        29.92F
DULUTH HARBOR  CLOUDY    64  61  88 N10       29.94F
TWO HARBORS    CLOUDY    70  64  83 CALM      29.92F
G MARAIS ARPRT CLOUDY    66  55  68 S7        29.99F
$$
MNZ029>031-032-039>041-046>048-054>057-064-260000-
   West Central Minnesota

CITY           SKY/WX    TMP DP  RH WIND       PRES   REMARKS
FERGUS FALLS   CLOUDY    79  70  73 NW8       29.90S
WHEATON        CLOUDY    81  70  69 NW8       29.92R
MORRIS         CLOUDY    84  75  74 S10       29.85F HX  92
ALEXANDRIA     CLOUDY    80  73  79 S8        29.90S
ELBOW LAKE     FAIR      79  72  78 NW8       29.92R
WADENA         CLOUDY    79  70  73 W5        29.92R
GLENWOOD       CLOUDY    81  73  78 S5        29.90S
APPLETON       CLOUDY    84  73  70 SE3       29.86F HX  91
BENSON         CLOUDY    84  73  70 CALM      29.89S HX  91
ORTONVILLE     CLOUDY    82  73  74 MISG      29.87F
MADISON        CLOUDY    86  73  66 S10       29.88F HX  93
WILLMAR        FAIR      84  77  79 SE3       29.90S THUNDER HX  94
$$
MNZ033>034-036-042>043-049>051-058-059-260000-
   Central Minnesota

CITY           SKY/WX    TMP DP  RH WIND       PRES   REMARKS
ST CLOUD       CLOUDY    80  73  79 SE8       29.89F
SAUK CENTRE    FAIR      78  73  84 SE7       29.89R
PAYNESVILLE    CLOUDY    83  73  70 SE5       29.90F
AITKIN         CLOUDY    75  68  78 S7        29.89F
PINE RIVER     CLOUDY    75  68  78 CALM      29.93F
BRAINERD       PTSUNNY   79  70  74 S7        29.89F
STAPLES        CLOUDY    79  68  69 W6        29.90S
LONG PRAIRIE   FAIR      75  72  88 SE8       29.89R
LITTLE FALLS   MOSUNNY   77  68  73 SE8       29.88F
LITCHFIELD     CLOUDY    84  75  74 SE5       29.91S THUNDER HX  92
BUFFALO        CLOUDY    83  71  67 SE3       29.92F
MAPLE LAKE     MOSUNNY   83  75  78 SE5       29.90F HX  90
HUTCHINSON     TSTM      82  77  85 SW12G20   29.95R
$$
MNZ037-044-045-052-053-260000-
   East Central Minnesota

CITY           SKY/WX    TMP DP  RH WIND       PRES   REMARKS
PRINCETON      MOSUNNY   82  72  69 SE9       29.90F
MORA           CLOUDY    77  66  69 S8        29.92F
CAMBRIDGE      MOSUNNY   81  68  65 SE7       29.89F
RUSH CITY      MOSUNNY   77  68  74 S10G17    29.92F HAZE
MOOSE LAKE     CLOUDY    73  66  78 CALM      29.90F
HINCKLEY       MOCLDY    79  70  73 S9        29.91F
CLOQUET        CLOUDY    72  64  78 SE6       29.93F
MCGREGOR       CLOUDY    73  68  83 SE7       29.90F
$$
MNZ071>073-080-081-089-090-097-098-260000-
   Southwest Minnesota

CITY           SKY/WX    TMP DP  RH WIND       PRES   REMARKS
MONTEVIDEO     CLOUDY    84  72  65 SW10      29.90R
GRANITE FALLS  CLOUDY    75  67  76 S13G24    29.92S THUNDER
CANBY          TSTM      73  68  84 S12G18    29.93R
MARSHALL       TSTM      75  62  64 NW12      29.95R
REDWOOD FALLS  LGT RAIN  85  76  74 SW9       29.89R HX  94
OLIVIA         TSTM      73  72  94 NE7       29.89F
PIPESTONE      CLOUDY    84  70  61 NE9G18    29.96R
WINDOM         CLOUDY    84  70  61 S7        29.91S
WORTHINGTON    CLOUDY    85  72  65 S12       29.91R HX  91
JACKSON        CLOUDY    82  70  65 CALM      29.94R
TRACY          TSTM      81  74  79 NW16G24   29.95R
SLAYTON        CLOUDY    81  71  73 SE6       29.92R
$$
MNZ065>067-074>077-082>085-091>093-260000-
   South Central Minnesota

CITY           SKY/WX    TMP DP  RH WIND       PRES   REMARKS
MANKATO        CLOUDY    82  74  76 S8        29.93R
NEW ULM        CLOUDY    82  73  74 S3        29.92R
ST JAMES       CLOUDY    82  73  74 S6        29.92R
FAIRMONT       CLOUDY    84  74  71 S9        29.93R HX  91
GLENCOE        CLOUDY    84  77  79 SE5       29.91R THUNDER HX  94
FARIBAULT      MOSUNNY   82  72  69 S9        29.94F
OWATONNA       SUNNY     82  72  69 S12G18    29.96R
WASECA         CLOUDY    79  70  73 S8        29.95S
ALBERT LEA     CLOUDY    82  70  65 S15G23    29.96R
$$
MNZ078>079-086>088-094>096-260000-
   Southeast Minnesota

CITY           SKY/WX    TMP DP  RH WIND       PRES   REMARKS
ROCHESTER      SUNNY     78  71  79 S15G23    30.00F
RED WING       MOSUNNY   82  66  57 S7        29.95S
STANTON        SUNNY     83  71  68 S13       29.93F
DODGE CENTER   SUNNY     81  70  69 S17G23    29.98S
WINONA         MOSUNNY   79  64  61 S6        29.98F
AUSTIN         SUNNY     81  70  69 S12       29.98S
PRESTON        SUNNY     79  68  69 S15G24    30.01F
$$
ABBREVIATIONS USED IN REMARKS
   TC - TEMPERATURES IN CELSIUS
  WCI - WIND CHILL INDEX
   HX - HEAT INDEX
  VSB - VISIBILITY
$$




USA.gov is the U.S. government's official web portal to all federal, state and local government web resources and services.